Weather History for Wright-Patt AFB, OH

Change the Weather History Date:

Friday, November 25, 2011

  Actual Average Record
Temperature  
Mean Temperature 48 °F -  
Max Temperature 60 °F 47 °F 65 °F (2006)
Min Temperature 35 °F 31 °F 12 °F (2005)
Degree Days  
Heating Degree Days 18    
Moisture  
Dew Point 37 °F    
Average Humidity 73    
Maximum Humidity 100    
Minimum Humidity 47    
Precipitation  
Precipitation 0.00 in - - ()
Sea Level Pressure  
Sea Level Pressure 30.19 in    
Wind  
Wind Speed 8 mph (South)    
Max Wind Speed 17 mph    
Max Gust Speed 25 mph    
Visibility 9 miles    
Events      
Averages and records for this station are not official NWS values.
T = Trace of Precipitation, MM = Missing Value Source: NWS Daily Summary

Daily Weather History Graph

Daily Weather History Graph

Search for Another Location

Airport:

Trip Planner

Search our weather history database for the weather conditions in past years. The results will help you decide how hot, cold, wet, or windy it might be!

Date:

Astronomy

Nov. 25, 2011 Rise Set
Actual Time 7:31 AM EST 5:14 PM EST
Civil Twilight 7:02 AM EST 5:43 PM EST
Nautical Twilight 6:29 AM EST 6:16 PM EST
Astronomical Twilight 5:56 AM EST 6:49 PM EST
Moon 7:58 AM EST (11/25) 5:40 PM EST (11/25)
Length of Visible Light 10h 41m
Length of Day
9h 42m
New Moon, 0% of the Moon is Illuminated
Nov 25
New Moon
Dec 2
First Quarter
Dec 10
Full
Dec 17
Last Quarter
Dec 24
New

Hourly Weather History & Observations

Time (EST) Temp. Windchill Dew Point Humidity Pressure Visibility Wind Dir Wind Speed Gust Speed Precip Events Conditions
12:55 AM 36.7 °F 32.9 °F 36.5 °F 99% 30.26 in 7.0 mi SSE 4.6 mph - N/A   Clear
1:49 AM 35.6 °F 30.7 °F 35.6 °F 100% 30.26 in 6.0 mi SE 5.8 mph - N/A   Clear
1:55 AM 36.3 °F 32.5 °F 36.0 °F 99% 30.26 in 6.0 mi SSE 4.6 mph - N/A   Clear
2:55 AM 35.1 °F 31.0 °F 34.7 °F 99% 30.26 in 6.0 mi SE 4.6 mph - N/A   Clear
3:55 AM 36.1 °F 30.6 °F 36.0 °F 99% 30.25 in 8.0 mi SSE 6.9 mph - N/A   Clear
4:01 AM 35.6 °F 29.9 °F 35.6 °F 100% 30.25 in 9.0 mi SSE 6.9 mph - N/A   Clear
4:55 AM 37.0 °F 32.4 °F 36.9 °F 99% 30.24 in 10.0 mi SSE 5.8 mph - N/A   Clear
5:55 AM 37.6 °F 32.3 °F 36.1 °F 95% 30.25 in 10.0 mi South 6.9 mph - N/A   Clear
6:55 AM 37.8 °F 32.5 °F 35.2 °F 91% 30.24 in 10.0 mi South 6.9 mph - N/A   Clear
7:55 AM 37.8 °F 32.5 °F 34.5 °F 88% 30.26 in 10.0 mi SSE 6.9 mph - N/A   Partly Cloudy
8:55 AM 43.2 °F 39.0 °F 37.6 °F 81% 30.26 in 10.0 mi South 6.9 mph - N/A   Partly Cloudy
9:55 AM 49.3 °F - 40.1 °F 71% 30.24 in 10.0 mi SSW 15.0 mph - N/A   Partly Cloudy
10:55 AM 52.7 °F - 41.2 °F 65% 30.24 in 10.0 mi SW 12.7 mph - N/A   Partly Cloudy
11:55 AM 55.9 °F - 41.5 °F 58% 30.20 in 10.0 mi SSW 12.7 mph - N/A   Partly Cloudy
12:55 PM 57.7 °F - 40.5 °F 53% 30.17 in 10.0 mi SW 17.3 mph 25.3 mph N/A   Partly Cloudy
1:55 PM 60.1 °F - 39.9 °F 47% 30.14 in 10.0 mi SSW 16.1 mph - N/A   Partly Cloudy
2:55 PM 60.3 °F - 40.3 °F 48% 30.13 in 10.0 mi SSW 16.1 mph - N/A   Scattered Clouds
3:55 PM 59.7 °F - 40.6 °F 49% 30.12 in 10.0 mi South 13.8 mph - N/A   Mostly Cloudy
4:55 PM 57.6 °F - 38.7 °F 49% 30.11 in 10.0 mi South 11.5 mph - N/A   Mostly Cloudy
5:55 PM 54.3 °F - 37.6 °F 53% 30.10 in 10.0 mi South 9.2 mph - N/A   Scattered Clouds
6:55 PM 51.6 °F - 37.2 °F 58% 30.11 in 10.0 mi South 8.1 mph - N/A   Partly Cloudy
7:55 PM 52.0 °F - 36.1 °F 55% 30.11 in 10.0 mi South 9.2 mph - N/A   Partly Cloudy
8:55 PM 50.0 °F - 35.1 °F 57% 30.11 in 10.0 mi South 6.9 mph - N/A   Partly Cloudy
9:55 PM 48.4 °F - 34.3 °F 58% 30.11 in 10.0 mi SSE 8.1 mph - N/A   Partly Cloudy
10:55 PM 48.0 °F - 33.8 °F 58% 30.11 in 10.0 mi South 8.1 mph - N/A   Partly Cloudy
11:55 PM 48.2 °F - 33.8 °F 58% 30.12 in 10.0 mi South 6.9 mph - N/A   Overcast